KA8OAD-1 Weather Reports


time (UTC)temp
C
wind
direction
speed
KPH
gust
KPH
rain 1hr
cm
rain 24hr
cm
rain mn
cm
humidity
%
barometer
mb
20260504011004 12 218 1.6 4.8 0.00 0.00 0.00 51 1010.7
20260504010504 12 217 1.6 4.8 0.00 0.00 0.00 51 1010.6
20260504010005 12 218 1.6 4.8 0.00 0.00 0.00 50 1010.6
20260504005004 12 230 3.2 6.4 0.00 0.00 0.00 48 1010.6
20260504004504 12 236 3.2 6.4 0.00 0.00 0.00 48 1010.6
20260504004004 13 239 3.2 6.4 0.00 0.00 0.00 48 1010.6
20260504003503 13 241 1.6 4.8 0.00 0.00 0.00 48 1010.6
20260504002004 13 233 3.2 6.4 0.00 0.00 0.00 46 1010.6
20260504001504 13 223 3.2 8.0 0.00 0.00 0.00 45 1010.6
20260504000504 13 224 4.8 12.9 0.00 0.00 0.00 45 1010.6
20260504000005 13 227 4.8 12.9 0.00 0.00 0.00 45 1010.6
20260503235504 13 228 6.4 17.7 0.00 0.00 0.00 45 1010.6
20260503235005 13 227 6.4 17.7 0.00 0.00 0.00 44 1010.6
20260503234504 13 231 6.4 17.7 0.00 0.00 0.00 45 1010.7
20260503234005 14 229 4.8 17.7 0.00 0.00 0.00 43 1010.7
20260503233504 14 231 4.8 16.1 0.00 0.00 0.00 43 1010.6
20260503233005 14 227 6.4 16.1 0.00 0.00 0.00 43 1010.8
20260503232504 14 221 4.8 14.5 0.00 0.00 0.00 43 1010.8
20260503231004 14 230 4.8 14.5 0.00 0.00 0.00 43 1010.8
20260503230504 14 229 4.8 14.5 0.00 0.00 0.00 42 1010.8
20260503230005 14 234 4.8 12.9 0.00 0.00 0.00 43 1010.8
20260503225504 14 228 4.8 12.9 0.00 0.00 0.00 43 1010.9
20260503225004 14 230 6.4 16.1 0.00 0.00 0.00 43 1010.9
20260503224504 14 239 6.4 17.7 0.00 0.00 0.00 42 1010.9
20260503224004 14 236 6.4 17.7 0.00 0.00 0.00 42 1010.9
20260503223503 14 228 6.4 14.5 0.00 0.00 0.00 43 1011.0
20260503222504 15 233 6.4 14.5 0.00 0.00 0.00 42 1011.1
20260503222004 15 239 4.8 14.5 0.00 0.00 0.00 42 1011.1
20260503221504 15 260 4.8 14.5 0.00 0.00 0.00 42 1011.1
20260503221005 15 248 6.4 20.9 0.00 0.00 0.00 41 1011.1
20260503220504 15 246 6.4 20.9 0.00 0.00 0.00 41 1010.9
20260503220005 15 266 4.8 12.9 0.00 0.00 0.00 41 1011.0
20260503215504 15 263 4.8 16.1 0.00 0.00 0.00 41 1011.1
20260503215004 15 254 4.8 17.7 0.00 0.00 0.00 41 1011.2
20260503214504 15 240 4.8 17.7 0.00 0.00 0.00 41 1011.1
20260503214004 15 239 6.4 20.9 0.00 0.00 0.00 41 1011.1
20260503213503 15 237 4.8 20.9 0.00 0.00 0.00 41 1011.1
20260503213004 15 239 8.0 19.3 0.00 0.00 0.00 39 1011.1
20260503212504 15 243 6.4 19.3 0.00 0.00 0.00 40 1011.0
20260503212005 15 234 6.4 16.1 0.00 0.00 0.00 39 1011.1
20260503211504 16 237 8.0 19.3 0.00 0.00 0.00 37 1011.1
20260503211005 16 256 8.0 24.1 0.00 0.00 0.00 39 1011.1
20260503210005 16 247 6.4 22.5 0.00 0.00 0.00 41 1011.0
20260503205503 16 245 8.0 22.5 0.00 0.00 0.00 41 1011.1
20260503205004 16 239 6.4 19.3 0.00 0.00 0.00 40 1011.1
20260503204504 16 254 6.4 24.1 0.00 0.00 0.00 40 1011.1
20260503204005 16 244 6.4 24.1 0.00 0.00 0.00 40 1011.2
20260503203504 16 231 6.4 16.1 0.00 0.00 0.00 39 1011.0
20260503203005 16 241 6.4 16.1 0.00 0.00 0.00 41 1011.2
20260503202504 16 248 6.4 16.1 0.00 0.00 0.00 40 1011.3
20260503202004 16 242 6.4 16.1 0.00 0.00 0.00 39 1011.3
20260503201004 16 240 6.4 22.5 0.00 0.00 0.00 41 1011.4
20260503195504 16 253 6.4 19.3 0.00 0.00 0.00 40 1011.8
20260503195005 16 251 8.0 22.5 0.00 0.00 0.00 39 1011.8
20260503194504 16 249 8.0 22.5 0.00 0.00 0.00 39 1011.9
20260503194005 16 236 8.0 22.5 0.00 0.00 0.00 40 1012.1
20260503193504 16 236 8.0 22.5 0.00 0.00 0.00 37 1012.1
20260503193005 16 236 8.0 19.3 0.00 0.00 0.00 39 1012.2
20260503192504 17 242 8.0 19.3 0.00 0.00 0.00 38 1012.2
20260503192004 17 245 8.0 17.7 0.00 0.00 0.00 39 1012.4
20260503191504 17 229 8.0 19.3 0.00 0.00 0.00 36 1012.4
20260503191005 17 249 8.0 24.1 0.00 0.00 0.00 36 1012.2
20260503190504 17 281 9.7 25.7 0.00 0.00 0.00 37 1012.4
20260503190005 17 290 9.7 30.6 0.00 0.00 0.00 36 1012.6
20260503185503 17 288 8.0 30.6 0.00 0.00 0.00 35 1012.5
20260503185004 17 256 6.4 22.5 0.00 0.00 0.00 38 1012.6
20260503184005 17 290 8.0 24.1 0.00 0.00 0.00 36 1012.7
20260503183504 16 288 8.0 24.1 0.00 0.00 0.00 40 1012.8
20260503182504 16 277 8.0 25.7 0.00 0.03 0.00 43 1013.0
20260503182005 16 265 8.0 25.7 0.00 0.03 0.00 40 1012.9
20260503181505 16 233 8.0 22.5 0.00 0.03 0.00 40 1012.9
20260503181005 16 247 9.7 24.1 0.00 0.03 0.00 40 1012.9
20260503180504 16 239 9.7 24.1 0.00 0.03 0.00 39 1012.9
20260503180005 16 232 8.0 22.5 0.00 0.03 0.00 38 1013.0
20260503175503 16 247 6.4 20.9 0.00 0.03 0.00 39 1013.1
20260503175004 17 256 6.4 16.1 0.00 0.03 0.00 38 1013.1
20260503174504 17 267 6.4 19.3 0.00 0.03 0.00 38 1013.3
20260503173503 17 249 9.7 24.1 0.00 0.03 0.00 39 1013.4
20260503173005 17 276 6.4 19.3 0.00 0.03 0.00 41 1013.3
20260503172004 17 236 6.4 20.9 0.00 0.03 0.00 38 1013.6
20260503171504 17 234 6.4 17.7 0.00 0.03 0.00 40 1013.6
20260503171005 17 268 8.0 25.7 0.00 0.03 0.00 41 1013.6
20260503170505 17 270 8.0 25.7 0.00 0.03 0.00 40 1013.8
20260503151004 12 237 6.4 24.1 0.00 0.03 0.00 49 1014.7
20260503150503 12 224 4.8 16.1 0.00 0.03 0.00 48 1014.8
20260503131004 5 211 3.2 8.0 0.00 0.03 0.00 72 1015.3
20260503130504 5 222 1.6 8.0 0.00 0.03 0.00 75 1015.4
20260503110504 0 0 0.0 0.0 0.00 0.03 0.00 87 1014.7
20260503090503 1 0 0.0 0.0 0.00 0.08 0.00 85 1014.4
20260503081504 1 0 0.0 0.0 0.00 0.15 0.00 84 1014.5
20260503081004 1 0 0.0 0.0 0.00 0.15 0.00 84 1014.4
20260503072004 2 0 0.0 0.0 0.00 0.18 0.00 81 1014.4
20260503071005 2 0 0.0 0.0 0.00 0.20 0.00 81 1014.4
20260503055005 3 0 0.0 0.0 0.00 0.33 0.00 78 1014.7
20260503054504 3 0 0.0 0.0 0.00 0.36 0.00 78 1014.8
20260503053004 3 0 0.0 0.0 0.00 0.41 0.00 78 1014.8
20260503052504 3 0 0.0 0.0 0.00 0.43 0.00 78 1014.8
20260503052005 3 0 0.0 0.0 0.00 0.46 0.00 78 1014.8
20260503051504 3 0 0.0 0.0 0.00 0.46 0.00 79 1014.9
20260503051005 4 0 0.0 0.0 0.00 0.48 0.00 79 1014.9
20260503050503 4 0 0.0 0.0 0.00 0.51 0.00 79 1014.8
20260503050005 4 0 0.0 0.0 0.00 0.51 0.00 79 1014.8
20260503045503 4 0 0.0 0.0 0.00 0.51 0.00 79 1014.9
20260503044504 4 0 0.0 0.0 0.00 0.51 0.00 79 1014.9
20260503044004 4 0 0.0 0.0 0.00 0.51 0.00 79 1014.9
20260503043504 4 0 0.0 0.0 0.00 0.51 0.00 80 1014.9
20260503043004 4 0 0.0 0.0 0.00 0.51 0.00 80 1014.9
20260503042504 4 0 0.0 0.0 0.00 0.51 0.00 80 1014.9
20260503042004 4 0 0.0 0.0 0.00 0.51 0.00 80 1015.0
20260503041503 4 257 1.6 3.2 0.00 0.51 0.00 80 1015.0
20260503041005 4 257 1.6 3.2 0.00 0.51 0.00 80 1015.0
20260503040007 4 0 0.0 0.0 0.00 0.51 0.00 80 1015.1
20260503035504 4 0 0.0 0.0 0.00 0.51 0.51 80 1015.1
20260503035005 4 0 0.0 0.0 0.00 0.51 0.51 81 1015.1
20260503034504 4 0 0.0 0.0 0.00 0.51 0.51 81 1015.1
20260503034004 4 0 0.0 0.0 0.00 0.51 0.51 81 1015.1
20260503032503 4 0 0.0 0.0 0.00 0.51 0.51 81 1015.1
20260503032005 4 0 0.0 0.0 0.00 0.51 0.51 81 1015.2
20260503031004 4 0 0.0 0.0 0.00 0.51 0.51 81 1015.2
20260503030504 4 0 0.0 0.0 0.00 0.51 0.51 81 1015.3
20260503030004 4 0 0.0 0.0 0.00 0.51 0.51 81 1015.3
20260503025504 4 0 0.0 0.0 0.00 0.51 0.51 80 1015.4
20260503025004 4 0 0.0 0.0 0.00 0.51 0.51 80 1015.4
20260503024004 4 0 0.0 0.0 0.00 0.51 0.51 79 1015.5
20260503023504 4 0 0.0 0.0 0.00 0.51 0.51 79 1015.5
20260503023004 4 0 0.0 0.0 0.00 0.51 0.51 79 1015.5
20260503022504 4 0 0.0 0.0 0.00 0.51 0.51 78 1015.5
20260503022005 4 0 0.0 0.0 0.00 0.51 0.51 78 1015.6
20260503021503 4 0 0.0 0.0 0.00 0.51 0.51 78 1015.5
20260503021005 4 0 0.0 0.0 0.00 0.51 0.51 77 1015.5
20260503020504 4 0 0.0 0.0 0.00 0.51 0.51 77 1015.5
20260503020004 4 0 0.0 0.0 0.00 0.51 0.51 77 1015.4
20260503015504 5 0 0.0 0.0 0.00 0.51 0.51 77 1015.5
20260503015004 5 0 0.0 0.0 0.00 0.51 0.51 76 1015.5
20260503014005 5 0 0.0 0.0 0.00 0.51 0.51 75 1015.4
20260503013005 5 0 0.0 0.0 0.00 0.51 0.51 74 1015.4
20260503012503 5 0 0.0 0.0 0.00 0.51 0.51 74 1015.4
20260503012004 5 0 0.0 0.0 0.00 0.51 0.51 73 1015.4
20260503011504 5 0 0.0 0.0 0.00 0.51 0.51 73 1015.3